www.pogodaiklimat.ru

Погода и климат >> Архив погоды >> Россия >> Сахалинская область >> Остров Монерон


ПОГОДА на Остров Монерон

  • Прогноз погоды на Остров Монерон
  • Монитор погоды на Остров Монерон
  • Климат города

АРХИВ ПОГОДЫ на Остров Монерон

Время (UTC), дата Ветер
(напр.,м/с)
 
Видим.   Явления Облачность Т
(С)
Тd
(С)
f
(%)
Тe
(С)
Тes
(С)
Комфортность P
(гПа)
Po
(гПа)
Тmin
(С)
Tmax
(С)
R
(мм)
R24
(мм)
S
(см)
12 12.12 С 8 4000 м слабый ливневой снег 10 баллов -6.5 -11.2 69 -15 -15 1020.8 1006.7
15 12.12 С 8 4000 м слабый ливневой снег 10 баллов -6.5 -10.4 74 -15 -15 1020.8 1006.7
18 12.12 С 5 4000 м слабый ливневой снег 10 баллов -6.5 -9.7 78 -14 -14 1019.4 1005.3
21 12.12 С 6 10 км слабый ливневой снег 9 баллов -6.5 -10.7 72 -14 -14 1020.8 1006.7 -7.2 0.7
00 13.12 С 5 4000 м слабый ливневой снег 10 баллов -6.6 -10.5 74 -14 -14 1022.1 1008.0
03 13.12 СВ 3 20 км в посл. час ливневой снег 7 баллов -5.6 -10.2 70 -11 -10 1020.8 1006.7
06 13.12 С 3 10 км слабый ливневой снег 9 баллов -5.8 -10.6 69 -11 -11 1020.8 1006.7
09 13.12 С 4 10 км слабый ливневой снег 9 баллов -5.6 -9.7 73 -12 -12 1020.8 1006.7 -4.5 0.5
12 13.12 СВ 4 10 км слабый ливневой снег 10 баллов -5.3 -9.0 75 -12 -12 1019.3 1005.3
15 13.12 В 5-7
{9}
10 км слабый ливневой снег {метель} 8/8 300 м
[Cb cap]
-6.2 -7.4 91 -14 -14 1018.1 1004.1
18 13.12 В 6 10 км слабый ливневой снег 7 баллов -5.8 -10.0 72 -14 -14 1019.4 1005.3
21 13.12 В 5 10 км слабый ливневой снег 7 баллов -5.9 -10.7 69 -13 -13 1019.4 1005.3 -6.3 1
00 14.12 СВ 4 20 км 4 балла -5.0 -10.9 63 -11 -11 1020.7 1006.7
03 14.12 СВ 5 20 км 4 балла -4.8 -10.9 62 -12 -11 1019.3 1005.3
06 14.12 СВ 7 20 км 9 баллов -5.4 -9.6 72 -14 -14 1020.8 1006.7
09 14.12 С 4 4000 м слабый ливневой снег 10 баллов -5.1 -9.2 73 -11 -11 1022.1 1008.0 -4.3 0.3
12 14.12 С 4 2000 м слабый ливневой снег 10 баллов -5.6 -7.1 89 -12 -12 1022.1 1008.0
15 14.12 СЗ 6 20 км ясно -5.7 -12.0 61 -13 -13 1022.1 1008.0
18 14.12 СЗ 3 10 км слабый ливневой снег 7 баллов -5.5 -11.0 65 -11 -11 1022.1 1008.0
21 14.12 З 5 10 км слабый ливневой снег 9 баллов -6.0 -8.7 81 -13 -13 1022.1 1008.0 -6.0 0.6
00 15.12 СЗ 3 10 км слабый ливневой снег 9 баллов -6.0 -10.6 70 -11 -11 1022.1 1008.0 -6.7
03 15.12 З 6 10 км слабый ливневой снег 9 баллов -5.2 -10.7 65 -13 -13 1020.8 1006.7
06 15.12 З 4 20 км в посл. час ливневой снег 9 баллов -4.5 -10.5 63 -10 -10 1020.7 1006.7
09 15.12 З 3 20 км 2 балла -4.1 -10.1 63 -9 -9 1020.7 1006.7 -3.8 0.0
12 15.12 З 4 20 км 7 баллов -2.5 -10.3 55 -8 -8 1019.2 1005.3
15 15.12 З 7 20 км 5 баллов -1.1 -7.9 60 -8 -8 1017.8 1004.0
18 15.12 ЮЗ 7 20 км 2 балла -0.2 -6.2 64 -7 -7 1016.4 1002.7
21 15.12 ЮЗ 7 20 км 7 баллов -0.2 -6.6 62 -7 -7 1015.0 1001.3 -4.1
00 16.12 ЮЗ 7 20 км 7 баллов -0.1 -6.5 62 -7 -7 1013.7 1000.0
03 16.12 З 5 20 км 4 балла -0.1 -10.9 44 -5 -5 1012.4 998.7
06 16.12 З 4 20 км 2 балла -0.6 -9.2 52 -6 -5 1011.0 997.3
09 16.12 З 3 20 км 2 балла -1.0 -8.4 57 -5 -5 1011.0 997.3 -0.1
12 16.12 З 2 20 км 9 баллов -1.0 -8.2 58 -4 -4 1009.7 996.0
15 16.12 З 2 20 км 10 баллов -0.7 -7.3 61 -4 -4 1008.4 994.7
18 16.12 СЗ 3 20 км 10 баллов -0.6 -6.8 63 -5 -5 1006.9 993.3
21 16.12 С 6 10 км слабый ливневой снег 9 баллов -1.7 -5.9 73 -9 -9 1005.7 992.0 -1.7 0.0
00 17.12 СЗ 3 20 км 9 баллов -1.8 -8.1 62 -6 -6 1007.0 993.3 -1.9
03 17.12 СЗ 3 20 км 10 баллов -1.2 -8.0 60 -6 -6 1005.6 992.0
06 17.12 СЗ 3 10 км слабый ливневой снег 9 баллов -2.3 -7.8 66 -7 -7 1004.4 990.7
09 17.12 СЗ 3 20 км 9 баллов -2.3 -9.7 57 -7 -7 1004.4 990.7 -0.1 0.0
12 17.12 СЗ 3 10 км слабый ливневой снег 9 баллов -2.4 -7.3 69 -7 -7 1004.4 990.7
15 17.12 СЗ 4 20 км в посл. час ливневой снег 7 баллов -3.8 -7.7 74 -10 -10 1003.0 989.3
18 17.12 СЗ 4 20 км 7 баллов -4.5 -11.3 59 -10 -10 1003.1 989.3
21 17.12 З 5 10 км слабый ливневой снег 9 баллов -4.6 -12.3 55 -11 -11 1001.8 988.0 -4.9 0.0
00 18.12 З 6-11
{14}
20 км {ливн. осадки} 9/9 600 м
[Cb cap]
-4.4 -12.5 53 -12 -12 1001.4 987.7
03 18.12 З 5 10 км слабый ливневой снег 9 баллов -5.4 -8.5 79 -13 -12 1000.5 986.7
06 18.12 З 7 20 км 9 баллов -4.7 -14.3 47 -12 -12 1000.5 986.7
09 18.12 З 7 10 км слабый ливневой снег 10 баллов -4.7 -14.3 47 -12 -12 1001.8 988.0 -4.1 0.0
12 18.12 З 5 10 км слабый ливневой снег 9 баллов -5.4 -14.9 47 -12 -12 1001.8 988.0
15 18.12 З 7 10 км слабый ливневой снег 10 баллов -6.4 -15.1 50 -15 -15 1003.2 989.3
18 18.12 З 8 20 км 6 баллов -6.6 -14.6 53 -15 -15 1003.2 989.3
21 18.12 З 7 20 км 7 баллов -5.9 -13.9 53 -14 -14 1001.8 988.0 -6.8 0.0
00 19.12 З 9 4000 м осадки на расстоянии 9 баллов -5.3 -12.5 57 -14 -14 1001.8 988.0
03 19.12 З 9 4000 м слабый ливневой снег 10 баллов -6.9 -8.5 88 -17 -17 999.1 985.3
06 19.12 З 12 4000 м слабый ливневой снег 10 баллов -6.1 -13.2 57 -16 -16 997.8 984.0

 

Местоположение метеостанции Остров Монерон (Сахалинская область, Россия): широта 46.25 долгота 141.20 высота над уровнем моря 109 м.

В архиве по умолчанию представлена погода на Остров Монерон за последнюю неделю. Архивные данные за месяц целиком и за предыдущие месяцы, начиная с января 2011 года, Вы можете получить, выбрав интересующий диапазон дат из раскрывающегося списка и нажав кнопку "Ввод!".


*Определитесь, кто Вы:
робот инопланетянин человек

Внимание! Время в таблицах - всемирное. Для получения местного времени необходимо прибавить поправку, которая на Остров Монерон равна 11 ч.

Смотрите также архив погоды в соседних городах и на ближайших метеорологических станциях:

Погода в Невельске (Сахалинская область, Россия) (66 км)
Погода на Мысе Крильон (Сахалинская область, Россия) (73 км)
Погода в Wakkanai (Япония) (100 км)
Погода в Холмске (Сахалинская область, Россия) (108 км)
Погода в Огоньках (Сахалинская область, Россия) (109 км)
Погода в Корсакове (Сахалинская область, Россия) (123 км)
Погода в Южно-Сахалинске (Сахалинская область, Россия) (139 км)
Погода в Новиково (Сахалинская область, Россия) (162 км)
Погода в Долинске (Сахалинская область, Россия) (171 км)
Погода в Мальково (Сахалинская область, Россия) (171 км)

Пояснения к столбцам:

Ветер - указаны скорость ветра в м/с - средняя за 10 мин, порывы в срок и между сроками (в фигурных скобках) и направление, откуда дует ветер: С - северный, СВ - северо-восточный, В - восточный, ЮВ - юго-восточный, Ю - южный, ЮЗ - юго-западный, З - западный, СЗ - северо-западный.
Видимость - горизонтальная дальность видимости в метрах или километрах. При видимости от 1 до 10 км при отсутствии осадков обычно наблюдается дымка, при ухудшении видимости до 1 км и менее - туман. В сухую погоду видимость может ухудшаться дымом, пылью или мглою.
Явления - указаны атмосферные явления, наблюдавшиеся в срок или в последний час перед сроком; фигурными скобками обозначены явления, наблюдавшиеся между сроками (за 1-3 часа до срока); квадратными скобками обозначены град или гололедные отложения с указанием их диаметра в мм.
Облачность - указаны через наклонную черту общая и нижняя облачность в баллах и высота нижней границы облаков в метрах; квадратными скобками обозначены формы облаков: Ci - перистые, Cs - перисто-слоистые, Cc - перисто-кучевые, Ac - высококучевые, As - высокослоистые, Sc - слоисто-кучевые, Ns - слоисто-дождевые, Cu - кучевые, Cb - кучево-дождевые. Подробнее классификацию облаков см. в Атласе облаков (PDF).
T - Температура воздуха - температура, измеренная на высоте 2 м над землей.
Td - Температура точки росы - температура, при понижении до которой содержащийся в воздухе водяной пар достигнет насыщения.
f - Относительная влажность воздуха - влажноcть воздуха, измеренная на высоте 2 м над землей.
Te - Эффективная температура - температура, которую ощущает одетый по сезону человек в тени. Характеристика душности погоды. При расчете учитывается влияние влажности воздуха и скорости ветра на теплоощущения человека.
Tes - Эффективная температура на солнце - температура, которую ощущает человек, с поправкой на солнечный нагрев. Характеристика знойности погоды. Зависит от высоты солнца над горизонтом, облачности и скорости ветра. Ночью, в пасмурную погоду, а также при ветре 12 м/с и более поправка равна нулю.
P - Атмосферное давление - приведенное к уровню моря атмосферное давление.
Po - Атмосферное давление - измеренное на уровне метеостанции атмосферное давление.
Tmin - Минимальная температура - минимум температуры воздуха на высоте 2 м над землей.
Tmax - Максимальная температура - максимум температуры воздуха на высоте 2 м над землей.
R - Количество осадков - Количество выпавших осадков за период времени, мм. При наведении курсора мыши на число - период времени, за который выпало указанное количество осадков.
R24 - Количество осадков - Количество выпавших осадков за 24 часа, мм.
S - Снежный покров - Высота снежного покрова, см. При наведении курсора мыши на число - состояние снежного покрова и степень покрытия местности в баллах.